Simultaneous Nadir Overpasses (SNOs) Predictions

Prediction of SNOs between GOES-16 and NPP Satellite Orbit:

Table of predicted SNOs for the next 14.0 days since TLE Epoch: 3/3/2017
Index Date Time (GOES-16) GOES-16 Lat,Lon NPP Lat,Lon Distance(km) Time Diff (sec)
1 03/04/2017 07:07:59 0.00, -89.49 -0.73, -86.20 374.96 80
2 03/05/2017 19:29:55 -0.00, -89.51 -0.47, -91.50 227.42 80
3 03/06/2017 19:13:50 -0.00, -89.52 0.59, -86.98 290.56 80
4 03/08/2017 07:35:36 -0.00, -89.54 0.58, -92.24 307.34 80
5 03/09/2017 07:14:11 -0.00, -89.55 -0.42, -87.71 210.63 80
6 03/10/2017 19:36:06 0.01, -89.57 -0.77, -93.01 391.34 80
7 03/11/2017 19:20:01 0.01, -89.59 0.24, -88.47 127.40 80
8 03/13/2017 07:41:47 -0.01, -89.63 0.94, -93.73 468.79 80
9 03/14/2017 07:20:23 -0.01, -89.65 -0.13, -89.21 50.05 80
10 03/16/2017 19:23:32 0.01, -89.69 -0.05, -89.98 32.13 80




NCC Satellite Simultaneous Nadir Overpasses (SNOs) Prediction Service
